sat.trackr.live / text

‹ back to catalog

ABS-4 (MOBISAT-1)

NORAD 28184 · 2004-007A

PAYLOAD ACTIVE UNKNOWN

§ Identity

Operator
Country
ABS
Launch date
2004-03-13
Launch site
AFETR
Launch vehicle
Mass (kg)
RCS (m²)
10.00

Purposes: comms

External: N2YO · Heavens-Above · Gunter

§ Orbital elements

Epoch: 2026-05-24T22:53:40.123968Z

Period
1,436.06 min
Inclination
5.9840°
Eccentricity
0.0005362
Mean motion
1.00274091 rev/d
Perigee alt
35,763.3 km
Apogee alt
35,808.6 km
Semi-major
42,164.1 km
B*
0.0000e+0
RAAN
72.2843°
Arg perigee
351.8770°
Mean anomaly
222.8141°
Rev number
5,210

§ Raw data

ABS-4 (MOBISAT-1)1 28184U 04007A   26144.95393662  .00000036  00000+0  00000+0 0  99912 28184   5.9840  72.2843 0005362 351.8770 222.8141  1.00274091 52106

JSON: /api/v1/satellites/28184 · /tle

For live sub-satellite position, see the globe view (requires WebGL).

§ Visibility from observer

Set your observer location to see the next 7 days of passes ≥ 10°. The values pass through the URL so the page stays shareable.

No JS? Fill the form by hand. The geolocation button needs JavaScript.